Fort Knox, KY

9:36 AM EST on November 20, 2017 (GMT -0500)
Godman Army Air Field

Weather History for KFTK - November, 2012

Change the Weather History Date:

Tuesday, November 6, 2012

  Actual Average Record
Temperature  
Mean Temperature 43 °F -  
Max Temperature 53 °F 57 °F 75 °F (1999)
Min Temperature 33 °F 38 °F 27 °F (2010)
Degree Days  
Heating Degree Days 22    
Moisture  
Dew Point 33 °F    
Average Humidity 69    
Maximum Humidity 95    
Minimum Humidity 42    
Precipitation  
Precipitation 0.03 in - - ()
Sea Level Pressure  
Sea Level Pressure 29.98 in    
Wind  
Wind Speed 4 mph (NW)    
Max Wind Speed 6 mph    
Max Gust Speed -    
Visibility 9 miles    
Events Rain    
Averages and records for this station are not official NWS values.
T = Trace of Precipitation, MM = Missing Value Source: NWS Daily Summary

Daily Weather History Graph

Daily Weather History Graph

Search for Another Location

Airport or City:

Trip Planner

Search our weather history database for the weather conditions in past years. The results will help you decide how hot, cold, wet, or windy it might be!

Date:

Astronomy

Nov. 06, 2012 Rise Set
Actual Time 7:15 AM EST 5:39 PM EST
Civil Twilight 6:47 AM EST 6:06 PM EST
Nautical Twilight 6:16 AM EST 6:38 PM EST
Astronomical Twilight 5:45 AM EST 7:08 PM EST
Moon No Moon Rise 1:07 PM EST (11/6)
Length of Visible Light 11h 19m
Length of Day
10h 24m
Waning Gibbous, 53% of the Moon is Illuminated
Nov 6
Waning Gibbous
Nov 6
Last Quarter
Nov 13
New
Nov 20
First Quarter
Nov 28
Full

Hourly Weather History & Observations

Time (EST) Temp. Windchill Dew Point Humidity Pressure Visibility Wind Dir Wind Speed Gust Speed Precip Events Conditions
12:55 AM 40.8 °F 36.9 °F 33.1 °F 74% 30.04 in 10.0 mi North 5.8 mph - N/A   Overcast
1:55 AM 39.4 °F 36.1 °F 31.5 °F 73% 30.04 in 10.0 mi ENE 4.6 mph - N/A   Clear
2:55 AM 38.7 °F 35.2 °F 31.5 °F 75% 30.04 in 10.0 mi NNE 4.6 mph - N/A   Overcast
3:55 AM 37.0 °F 32.4 °F 29.8 °F 75% 30.04 in 10.0 mi North 5.8 mph - N/A   Overcast
4:55 AM 35.6 °F 30.7 °F 29.1 °F 77% 30.03 in 10.0 mi NE 5.8 mph - N/A   Clear
5:55 AM 34.7 °F 29.6 °F 28.2 °F 77% 30.03 in 10.0 mi NNE 5.8 mph - N/A   Clear
6:55 AM 33.3 °F 30.2 °F 27.5 °F 79% 30.03 in 10.0 mi NE 3.5 mph - N/A   Partly Cloudy
7:55 AM 33.3 °F - 28.0 °F 81% 30.04 in 10.0 mi Calm Calm - N/A   Clear
8:55 AM 38.7 °F 34.3 °F 29.1 °F 69% 30.04 in 10.0 mi ENE 5.8 mph - N/A   Clear
9:55 AM 41.9 °F 40.0 °F 29.5 °F 61% 30.04 in 10.0 mi ESE 3.5 mph - N/A   Clear
10:55 AM 45.7 °F - 29.8 °F 54% 30.03 in 10.0 mi Calm Calm - N/A   Clear
11:55 AM 51.6 °F - 31.3 °F 46% 30.02 in 10.0 mi West 5.8 mph - N/A   Clear
12:55 PM 52.5 °F - 31.1 °F 44% 29.98 in 10.0 mi Calm Calm - N/A   Mostly Cloudy
1:55 PM 53.2 °F - 30.6 °F 42% 29.96 in 10.0 mi Calm Calm - N/A   Overcast
2:55 PM 52.7 °F - 30.4 °F 42% 29.94 in 10.0 mi West 4.6 mph - N/A   Overcast
3:55 PM 51.4 °F - 29.1 °F 42% 29.94 in 10.0 mi SW 3.5 mph - N/A   Overcast
4:55 PM 50.0 °F - 31.5 °F 49% 29.93 in 10.0 mi West 3.5 mph - N/A   Overcast
5:55 PM 48.4 °F - 31.1 °F 51% 29.93 in 10.0 mi WSW 5.8 mph - N/A   Overcast
6:55 PM 46.8 °F - 34.9 °F 63% 29.94 in 10.0 mi West 5.8 mph - 0.00 in   Light Drizzle
7:55 PM 45.3 °F 42.3 °F 37.8 °F 75% 29.95 in 7.0 mi West 5.8 mph - 0.00 in Rain Light Rain
8:55 PM 43.2 °F 39.7 °F 39.0 °F 85% 29.96 in 7.0 mi West 5.8 mph - 0.00 in Rain Light Rain
9:55 PM 42.3 °F 39.4 °F 39.9 °F 91% 29.95 in 6.0 mi West 4.6 mph - 0.01 in Rain Light Rain
10:39 PM 42.8 °F - 41.0 °F 93% 29.92 in 5.0 mi West 2.3 mph - N/A Rain Light Rain
10:55 PM 42.1 °F - 40.5 °F 94% 29.94 in 5.0 mi Calm Calm - 0.01 in Rain Light Rain
11:23 PM 42.8 °F - 41.0 °F 93% 29.91 in 5.0 mi Calm Calm - N/A   Overcast
11:55 PM 41.7 °F - 40.5 °F 95% 29.92 in 4.0 mi Calm Calm - 0.01 in   Mostly Cloudy